Tracking 18980 objects as of 23-Feb-2018
HD Live streaming from Space Station
objects crossing your sky now

NOAA 16 DEB

Track NOAA 16 DEB now!
10-day predictions


NORAD ID: 42337
Int'l Code: 2000-055QD
Perigee: 765.3 km
Apogee: 864.4 km
Inclination: 98.8 °
Period: 101.0 minutes
Semi major axis: 7185 km
RCS: Unknown
Launch date: September 21, 2000
Source: United States (US)
Launch site: AIR FORCE WESTERN TEST RANGE (AFWTR)

Note: This is SATELLITE DEBRIS
aabbcc
Your satellite tracking list
Your tracking list is empty




NASA's NSSDC Master Catalog

Two Line Element Set (TLE):
1 42337U 00055QD  18053.46320732 +.00000809 +00000-0 +35461-3 0  9992
2 42337 098.7762 136.5601 0068959 295.4747 063.9309 14.25238669106213
Source of the keplerian elements: AFSPC